Hourly Data Report for November 04, 2020

L'ASSOMPTION
QUEBEC
Current Station Operator: ECCC - MSC

45°48'34.000" N
73°26'05.000" W
21.00 m
7014160
71524
WEW

Download Data

Hourly Data (November 2020)
Hourly Data Report for November 4, 2020
TIME
LST
Temp Definition
°C
Dew Point Definition
°C
Rel Hum Definition
%
Precip. Amount Definition
mm

Wind Dir Definition
10's deg

Wind Spd Definition
km/h
Visibility Definition
km
Stn Press Definition
kPa
Hmdx Definition


Wind Chill Definition


Weather Definition


00:00 -0.7 -6.8 64 0.0 11 9   102.52   -4 LegendNANA
01:00 -0.8 -5.0 73 0.0 11 8   102.54   -4 LegendNANA
02:00 -0.9 -4.5 77 0.0 13 5   102.55   -3 LegendNANA
03:00 -0.8 -4.6 76 0.0 13 6   102.55   -3 LegendNANA
04:00 -0.7 -4.9 73 0.0 12 6   102.53   -3 LegendNANA
05:00 -0.7 -4.8 74 0.0 10 5   102.51   -2 LegendNANA
06:00 -0.7 -4.9 73 0.0 10 6   102.50   -3 LegendNANA
07:00 -0.4 -4.6 73 0.0 9 7   102.49   -3 LegendNANA
08:00 0.0 -4.4 72 0.0 8 8   102.49   -3 LegendNANA
09:00 0.9 -4.0 70 0.0 8 9   102.48     LegendNANA
10:00 1.8 -3.8 66 0.0 7 9   102.43     LegendNANA
11:00 2.8 -3.5 63 0.0 7 8   102.38     LegendNANA
12:00 4.7 -1.9 62 0.0 7 10   102.30     LegendNANA
13:00 5.2 -2.0 60 0.0 3 8   102.24     LegendNANA
14:00 6.1 -1.2 59 0.0 4 10   102.21     LegendNANA
15:00 6.3 -1.3 58 0.0 3 8   102.17     LegendNANA
16:00 4.9 -1.4 63 0.0 2 9   102.20     LegendNANA
17:00 3.5 -1.6 69 0.0 1 9   102.18     LegendNANA
18:00 2.4 -1.8 74 0.0 1 9   102.19     LegendNANA
19:00 1.7 -1.9 77 0.0 1 7   102.18     LegendNANA
20:00 0.7 -2.7 78 0.0 1 10   102.17     LegendNANA
21:00 0.1 -3.0 79 0.0 1 7   102.14     LegendNANA
22:00 -0.1 -3.1 80 0.0 1 7   102.13   -3 LegendNANA
23:00 -0.3 -3.1 82 0.0 36 7   102.11   -3 LegendNANA

Notes on Data Quality.

Legend

  • E = Estimated
  • M = Missing
  • NA = Not Available*
  • [empty] = Indicates an unobserved value
Date modified: